KD2GO Weather Reports


time (UTC)temp
F
wind
direction
speed
knots
gust
knots
rain 1hr
in
rain 24hr
in
rain mn
in
humidity
%
barometer
mb
20260509214459 55 326 0.9 1.7 0.01 0.33 0.33 79 1009.5
20260509212959 55 359 1.7 5.2 0.01 0.33 0.33 76 1009.6
20260509211459 55 289 2.6 7.0 0.02 0.33 0.33 73 1009.8
20260509210002 55 283 1.7 4.3 0.04 0.32 0.32 53 1009.8
20260509203000 53 314 0.0 0.9 0.08 0.32 0.32 60 1009.7
20260509201501 52 314 0.9 2.6 0.09 0.31 0.31 63 1010.1
20260509200001 52 314 0.0 1.7 0.08 0.28 0.28 60 1009.9
20260509191500 53 316 2.6 5.2 0.11 0.22 0.22 65 1011.0
20260509190001 53 275 1.7 6.1 0.10 0.20 0.20 68 1010.9
20260509184459 53 301 2.6 9.6 0.10 0.17 0.17 69 1011.1
20260509182959 53 330 1.7 6.1 0.09 0.14 0.14 69 1011.3
20260509181459 54 305 0.9 2.6 0.08 0.11 0.11 73 1011.3
20260509180000 54 285 1.7 4.3 0.08 0.09 0.09 77 1011.0
20260509174459 54 312 0.0 1.7 0.06 0.07 0.07 79 1011.0
20260509171458 55 336 0.9 3.5 0.03 0.03 0.03 84 1011.3
20260509170001 56 232 0.9 2.6 0.01 0.01 0.01 85 1011.5
20260509164459 56 283 1.7 5.2 0.01 0.01 0.01 85 1011.2
20260509162959 57 311 2.6 8.7 0.01 0.01 0.01 83 1011.5
20260509160001 56 303 1.7 3.5 0.00 0.00 0.00 85 1011.6
20260509154459 56 330 0.9 3.5 0.00 0.00 0.00 84 1011.6
20260509153000 56 147 0.9 2.6 0.00 0.00 0.00 85 1011.6
20260509151459 56 114 0.9 3.5 0.00 0.00 0.00 84 1011.6
20260509150001 55 224 0.0 0.9 0.00 0.00 0.00 85 1011.6
20260509142959 54 192 0.9 3.5 0.00 0.00 0.00 84 1011.6
20260509141459 54 129 1.7 2.6 0.00 0.00 0.00 84 1011.6
20260509140001 54 133 1.7 4.3 0.00 0.00 0.00 83 1011.5
20260509134500 54 71 1.7 3.5 0.00 0.00 0.00 82 1011.4
20260509132959 54 131 0.9 2.6 0.00 0.00 0.00 82 1011.3
20260509131458 53 127 1.7 3.5 0.00 0.00 0.00 82 1011.4
20260509130000 53 207 1.7 3.5 0.00 0.00 0.00 82 1011.6
20260509124459 53 123 2.6 4.3 0.00 0.00 0.00 81 1011.6
20260509122958 52 124 3.5 5.2 0.00 0.00 0.00 80 1011.7
20260509121458 52 119 1.7 3.5 0.00 0.00 0.00 81 1011.5
20260509115958 52 119 1.7 3.5 0.00 0.00 0.00 80 1011.6
20260509114458 52 120 1.7 3.5 0.00 0.00 0.00 80 1011.5
20260509112958 52 112 1.7 5.2 0.00 0.00 0.00 79 1011.6
20260509111458 52 110 2.6 5.2 0.00 0.00 0.00 79 1011.4
20260509105957 52 117 2.6 4.3 0.00 0.00 0.00 80 1011.6
20260509102959 52 328 0.9 2.6 0.00 0.00 0.00 79 1011.2
20260509101458 52 323 0.0 0.9 0.00 0.00 0.00 77 1011.3
20260509092957 52 11 0.9 1.7 0.00 0.00 0.00 74 1011.2
20260509090000 52 11 0.0 0.9 0.00 0.00 0.00 73 1011.3
20260509084458 52 11 0.9 1.7 0.00 0.00 0.00 74 1011.5
20260509081458 52 61 0.9 1.7 0.00 0.00 0.00 73 1011.6
20260509075958 52 61 0.9 1.7 0.00 0.00 0.00 73 1011.6
20260509074458 51 61 0.0 0.0 0.00 0.00 0.00 74 1011.8
20260509072957 52 61 0.0 1.7 0.00 0.00 0.00 73 1011.5
20260509065958 51 305 0.0 1.7 0.00 0.01 0.00 77 1011.6
20260509064457 51 305 0.0 0.0 0.00 0.01 0.00 78 1011.7
20260509062958 51 305 0.0 1.7 0.00 0.01 0.00 77 1011.8
20260509061457 52 305 0.0 2.6 0.00 0.01 0.00 75 1012.1
20260509060000 54 25 0.0 0.9 0.00 0.01 0.00 73 1011.9
20260509054457 54 25 0.9 1.7 0.00 0.01 0.00 68 1011.9
20260509052958 54 25 0.0 1.7 0.00 0.01 0.00 66 1011.9
20260509050001 53 25 0.0 0.0 0.00 0.01 0.00 70 1012.7
20260509044500 53 25 0.0 1.7 0.00 0.01 0.00 69 1012.7
20260509041500 54 25 0.0 0.9 0.00 0.01 0.00 69 1012.6
20260509040005 53 25 0.0 1.7 0.00 0.01 0.00 70 1012.6
20260509034502 53 25 0.0 1.7 0.00 0.01 0.01 71 1012.6
20260509033002 53 25 0.0 0.0 0.00 0.01 0.01 69 1012.6
20260509031501 53 25 0.0 0.0 0.00 0.01 0.01 71 1012.6
20260509030002 53 25 0.0 0.0 0.00 0.01 0.01 71 1012.6
20260509024501 52 25 0.0 0.0 0.00 0.01 0.01 74 1012.6
20260509023001 53 25 0.0 0.0 0.00 0.01 0.01 74 1012.6
20260509021500 54 25 0.0 0.0 0.00 0.01 0.01 71 1012.6
20260509015959 54 25 0.0 0.0 0.00 0.01 0.01 69 1012.4
20260509014500 54 25 0.0 0.0 0.00 0.01 0.01 69 1012.2
20260509011459 54 25 0.0 0.0 0.00 0.01 0.01 68 1011.9
20260509010003 55 25 0.0 0.0 0.00 0.01 0.01 67 1011.6
20260509004501 55 25 0.0 0.0 0.00 0.01 0.01 66 1011.2
20260509003001 55 25 0.0 0.0 0.00 0.01 0.01 68 1011.1
20260509001501 55 25 0.0 1.7 0.00 0.01 0.01 65 1010.9
20260509000001 56 25 0.9 2.6 0.00 0.01 0.01 63 1010.7
20260508234500 56 281 0.9 1.7 0.00 0.01 0.01 64 1010.6
20260508233001 57 270 0.0 3.5 0.00 0.01 0.01 60 1010.6
20260508230002 57 296 0.9 2.6 0.00 0.01 0.01 58 1010.7
20260508224502 58 308 1.7 5.2 0.00 0.01 0.01 56 1010.7
20260508221502 58 283 3.5 7.8 0.00 0.01 0.01 53 1010.6